FO-99 (43937 NORAD) Tracking and Keplerian Element Data

This shows tracking and keplerian element data for the satellite.

Feedback or suggestion? Click here.




ElementValue
Catalog43937
NameFO-99
Epoch Orbit2639
Epoch Day191.42892569
Epoch Year2019
RAAN248.6567
Inclination97.2749
Eccentricity0.0024422
Argument of Perigee359.4979
Mean Anonmoly56.0218
Mean Motion15.23598543
Decay Rate6.93E-06
L11 43937U 19003F 19191.42892569 .00000693 00000-0 31661-4 0 9994
L22 43937 97.2749 248.6567 0024422 359.4979 56.0218 15.23598543 26391

Live tracking and technical data element details for FO-99 (NORAD 43937). FO-99 can be tracked NOW for your location showing map with azimuth and elevation plus other details from your city location.

Track the satellite on the map from your city or location and see movement details for azimuth, elevation, latitude, longitude, range, height, and movement on the map or in text.







IsCatalogInMostPopularTable: catalog: 43937, numindb: 209
Update: records affected: 1



GetName: 43937 FO-99

Hit Count: updated at: Mon, 15 Jul 2019 21:53:57 GMT